Zurück zum Katalog

DMSP 5D-2 F13 DEB

AktivSSO
NORAD 40400·DEBRIS·🇺🇸 United States

Gestartet Mar 24, 1995 von Vandenberg Space Force Base

Loading…

Nächste Überflüge (nächste 24 Stunden)

TLE

AktuellSource: Space-Track

Epoche: Sep 14, 2026, 13:00 UTC

1 40400U 95015M   26257.54169488  .00001875  00000-0  51327-3 0  9997
2 40400  98.4640 286.8431 0131832  98.2014 263.4152 14.43333707604025

Verfolge DMSP 5D-2 F13 DEB in Echtzeit mit AllMySat

Download on the App Store